When you browse on this site, cookies collect data to enhance your experience and personalize the content and advertising you see.
Visit our Privacy Policy to learn more. By continuing to use the site, you agree to this use of cookies and data.
  • In Italy
  • List of Countries
  • For 7 days
  • Water Temperature
  • Satellite Maps
  • Weather Map
  • Weather Widgets
  • user-avatar
    Login

    Hourly Weather Matlock

    Today, 17 January, Thursday

    Time Temperature Precipitation Wind Pressure Humidity
    00:00 +1°C° 0 mm 2 mps 734 mmHg 93%
    01:00 0°C° 0 mm 3 mps 734 mmHg 92%
    02:00 0°C° 0 mm 3 mps 735 mmHg 90%
    03:00 -1°C° 0 mm 4 mps 735 mmHg 89%
    04:00 -1°C° 0 mm 4 mps 736 mmHg 85%
    05:00 -1°C° 0 mm 5 mps 737 mmHg 81%
    06:00 -1°C° 0 mm 4 mps 738 mmHg 78%
    07:00 -2°C° 0 mm 5 mps 739 mmHg 74%
    08:00 -2°C° 0 mm 5 mps 739 mmHg 71%
    09:00 -2°C° 0 mm 5 mps 740 mmHg 67%
    10:00 -2°C° 0 mm 6 mps 741 mmHg 63%
    11:00 -1°C° 0 mm 6 mps 741 mmHg 60%
    12:00 0°C° 0 mm 7 mps 742 mmHg 56%
    13:00 +1°C° 0 mm 6 mps 743 mmHg 58%
    14:00 +1°C° 0 mm 5 mps 743 mmHg 59%
    15:00 +1°C° 0 mm 4 mps 744 mmHg 61%
    16:00 0°C° 0 mm 4 mps 744 mmHg 64%
    17:00 0°C° 0 mm 3 mps 744 mmHg 68%
    18:00 -1°C° 0 mm 3 mps 745 mmHg 71%
    19:00 -1°C° 0 mm 2 mps 745 mmHg 71%
    20:00 -1°C° 0 mm 2 mps 745 mmHg 71%
    21:00 -1°C° 0 mm 2 mps 746 mmHg 71%
    22:00 +1°C° 0 mm 1 mps 746 mmHg 70%
    23:00 +1°C° 0 mm 1 mps 746 mmHg 70%

    Tomorrow, 18 January, Friday

    Time Temperature Precipitation Wind Pressure Humidity
    00:00 +1°C° 0 mm 1 mps 746 mmHg 70%
    01:00 +1°C° 0 mm 1 mps 746 mmHg 70%
    02:00 +1°C° 0 mm 1 mps 746 mmHg 70%
    03:00 +1°C° 0 mm 1 mps 746 mmHg 70%
    04:00 -1°C° 0 mm 2 mps 745 mmHg 71%
    05:00 -1°C° 0 mm 2 mps 745 mmHg 72%
    06:00 -1°C° 0 mm 2 mps 745 mmHg 72%
    07:00 -1°C° 0 mm 3 mps 745 mmHg 71%
    08:00 -1°C° 0 mm 3 mps 745 mmHg 71%
    09:00 -1°C° 0 mm 3 mps 744 mmHg 70%
    10:00 -1°C° 0 mm 4 mps 744 mmHg 67%
    11:00 0°C° 0 mm 5 mps 744 mmHg 63%
    12:00 +1°C° 0 mm 6 mps 744 mmHg 59%
    13:00 +1°C° 0.1 mm 6 mps 743 mmHg 63%
    14:00 +1°C° 0.1 mm 6 mps 743 mmHg 66%
    15:00 +1°C° 0.1 mm 6 mps 742 mmHg 70%
    16:00 +1°C° 0.2 mm 6 mps 742 mmHg 72%
    17:00 +1°C° 0.2 mm 6 mps 741 mmHg 74%
    18:00 -1°C° 0.2 mm 6 mps 741 mmHg 77%
    19:00 -1°C° 0.2 mm 6 mps 741 mmHg 77%
    20:00 -1°C° 0.2 mm 7 mps 741 mmHg 78%
    21:00 -1°C° 0.2 mm 7 mps 740 mmHg 78%
    22:00 -1°C° 0.1 mm 7 mps 740 mmHg 81%
    23:00 -1°C° 0.1 mm 7 mps 740 mmHg 83%

    Day after tomorrow, 19 January, Saturday

    Time Temperature Precipitation Wind Pressure Humidity
    00:00 -1°C° 0.1 mm 6 mps 740 mmHg 85%
    01:00 -1°C° 0 mm 6 mps 739 mmHg 87%
    02:00 0°C° 0 mm 5 mps 739 mmHg 89%
    03:00 0°C° 0 mm 5 mps 739 mmHg 91%
    04:00 +1°C° 0.1 mm 5 mps 738 mmHg 92%
    05:00 +1°C° 0.1 mm 4 mps 738 mmHg 93%
    06:00 +1°C° 0.1 mm 4 mps 738 mmHg 94%
    07:00 +1°C° 0.3 mm 4 mps 738 mmHg 94%
    08:00 +1°C° 0.3 mm 4 mps 738 mmHg 95%
    09:00 +1°C° 0.3 mm 4 mps 738 mmHg 96%
    10:00 +1°C° 0.7 mm 4 mps 738 mmHg 95%
    11:00 +3°C° 0.7 mm 4 mps 738 mmHg 95%
    12:00 +3°C° 0.7 mm 3 mps 738 mmHg 95%
    13:00 +3°C° 0.2 mm 3 mps 738 mmHg 95%
    14:00 +3°C° 0.2 mm 3 mps 737 mmHg 96%
    15:00 +4°C° 0.2 mm 2 mps 737 mmHg 96%
    16:00 +4°C° 0 mm 2 mps 738 mmHg 96%
    17:00 +5°C° 0 mm 1 mps 738 mmHg 97%
    18:00 +5°C° 0 mm 1 mps 739 mmHg 97%
    19:00 +5°C° 0 mm 1 mps 739 mmHg 97%
    20:00 +5°C° 0 mm 1 mps 739 mmHg 97%
    21:00 +3°C° 0 mm 0 mps 740 mmHg 97%
    22:00 +4°C° 0 mm 1 mps 740 mmHg 97%
    23:00 +4°C° 0 mm 1 mps 741 mmHg 97%

    20 January, Sunday

    Time Temperature Precipitation Wind Pressure Humidity
    00:00 +4°C° 0 mm 1 mps 741 mmHg 96%
    01:00 +4°C° 0 mm 1 mps 741 mmHg 96%
    02:00 +4°C° 0 mm 1 mps 742 mmHg 97%
    03:00 +3°C° 0 mm 2 mps 742 mmHg 97%
    04:00 +3°C° 0 mm 2 mps 742 mmHg 96%
    05:00 +2°C° 0 mm 2 mps 743 mmHg 96%
    06:00 +2°C° 0 mm 2 mps 743 mmHg 96%
    07:00 +2°C° 0 mm 2 mps 744 mmHg 95%
    08:00 +3°C° 0 mm 1 mps 744 mmHg 94%
    09:00 +2°C° 0 mm 1 mps 745 mmHg 93%
    10:00 +3°C° 0 mm 2 mps 745 mmHg 89%
    11:00 +4°C° 0 mm 2 mps 746 mmHg 85%
    12:00 +5°C° 0 mm 2 mps 746 mmHg 80%
    13:00 +5°C° 0 mm 2 mps 747 mmHg 83%
    14:00 +4°C° 0 mm 3 mps 747 mmHg 85%
    15:00 +4°C° 0 mm 3 mps 747 mmHg 87%
    16:00 +4°C° 0.1 mm 4 mps 748 mmHg 86%
    17:00 +3°C° 0.1 mm 4 mps 749 mmHg 84%
    18:00 +1°C° 0.1 mm 5 mps 750 mmHg 83%
    19:00 +1°C° 0 mm 5 mps 750 mmHg 81%
    20:00 0°C° 0 mm 4 mps 751 mmHg 80%
    21:00 -1°C° 0 mm 4 mps 751 mmHg 78%
    22:00 -1°C° 0 mm 4 mps 752 mmHg 78%
    23:00 -2°C° 0 mm 4 mps 752 mmHg 78%

    21 January, Monday

    Time Temperature Precipitation Wind Pressure Humidity
    00:00 -1°C° 0 mm 3 mps 752 mmHg 78%
    01:00 -1°C° 0 mm 3 mps 752 mmHg 77%
    02:00 -1°C° 0 mm 3 mps 752 mmHg 77%
    03:00 -2°C° 0 mm 3 mps 752 mmHg 77%
    04:00 -2°C° 0 mm 3 mps 752 mmHg 76%
    05:00 -2°C° 0 mm 3 mps 752 mmHg 75%
    06:00 -2°C° 0 mm 2 mps 752 mmHg 74%
    07:00 -2°C° 0 mm 2 mps 752 mmHg 74%
    08:00 -1°C° 0 mm 2 mps 752 mmHg 74%
    09:00 -1°C° 0 mm 2 mps 752 mmHg 74%
    10:00 +1°C° 0 mm 2 mps 752 mmHg 73%
    11:00 +1°C° 0 mm 3 mps 751 mmHg 72%
    12:00 +2°C° 0 mm 3 mps 751 mmHg 70%
    13:00 +2°C° 0 mm 3 mps 750 mmHg 72%
    14:00 +1°C° 0 mm 4 mps 749 mmHg 73%
    15:00 +1°C° 0 mm 4 mps 748 mmHg 75%
    16:00 0°C° 0 mm 4 mps 747 mmHg 77%
    17:00 0°C° 0 mm 5 mps 746 mmHg 80%
    18:00 -1°C° 0 mm 5 mps 745 mmHg 83%
    19:00 0°C° 0.2 mm 5 mps 743 mmHg 84%
    20:00 -1°C° 0.2 mm 6 mps 742 mmHg 85%
    21:00 -1°C° 0.2 mm 7 mps 740 mmHg 86%
    22:00 -1°C° 0.9 mm 7 mps 739 mmHg 87%
    23:00 -1°C° 0.9 mm 7 mps 737 mmHg 89%

    22 January, Tuesday

    Time Temperature Precipitation Wind Pressure Humidity
    00:00 -1°C° 0.9 mm 8 mps 735 mmHg 90%
    01:00 -1°C° 1.5 mm 7 mps 734 mmHg 92%
    02:00 -1°C° 1.5 mm 7 mps 733 mmHg 94%
    03:00 -1°C° 1.5 mm 6 mps 732 mmHg 95%
    04:00 -1°C° 0.4 mm 6 mps 732 mmHg 94%
    05:00 0°C° 0.4 mm 5 mps 731 mmHg 92%
    06:00 0°C° 0.4 mm 5 mps 731 mmHg 91%
    07:00 -1°C° 0 mm 6 mps 731 mmHg 89%
    08:00 -1°C° 0 mm 6 mps 731 mmHg 88%
    09:00 -2°C° 0 mm 7 mps 731 mmHg 87%
    10:00 -1°C° 0.2 mm 7 mps 731 mmHg 87%
    11:00 -1°C° 0.2 mm 7 mps 731 mmHg 88%
    12:00 -1°C° 0.2 mm 7 mps 731 mmHg 89%
    13:00 -1°C° 0.4 mm 7 mps 731 mmHg 89%
    14:00 -2°C° 0.4 mm 7 mps 731 mmHg 89%
    15:00 -2°C° 0.4 mm 7 mps 731 mmHg 89%
    16:00 -2°C° 0.5 mm 7 mps 731 mmHg 90%
    17:00 -2°C° 0.5 mm 7 mps 732 mmHg 91%
    18:00 -2°C° 0.5 mm 7 mps 732 mmHg 92%
    19:00 -2°C° 0.6 mm 6 mps 733 mmHg 94%
    20:00 -1°C° 0.6 mm 5 mps 733 mmHg 95%
    21:00 -1°C° 0.6 mm 5 mps 734 mmHg 97%
    22:00 -1°C° 0.1 mm 4 mps 734 mmHg 97%
    23:00 -1°C° 0.1 mm 4 mps 735 mmHg 97%
    Show more